CCA4461 ZUUU-ZUZH

Flight info

Callsign CCA4461
Flight time N/A
Altitude 30100
Route LUVEN G212 TUVKI H89 PAN
Aircraft A319/M-SDE2E3GHIJ3J4J5LM1ORWXY/LB1D1

Departure

Time 2026-05-08 05:04
Airport Chengdu Shuangliu International Airport (ZUUU)

Arrival

Time N/A
Airport Panzhihua Bao'anying Airport (ZUZH)
Time Latitude Longitude Altitude Speed Heading
2026-05-08 04:37 30.57273 103.95086 1646 ft 0 kts 23°
2026-05-08 04:56 30.57262 103.95081 1646 ft 4 kts 22°
2026-05-08 04:56 30.57237 103.95069 1646 ft 4 kts 16°
2026-05-08 04:56 30.57212 103.95065 1646 ft 4 kts 343°
2026-05-08 04:57 30.57200 103.95073 1646 ft 0 kts 291°
2026-05-08 04:59 30.57200 103.95071 1646 ft 2 kts 291°
2026-05-08 04:59 30.57210 103.95042 1646 ft 6 kts 291°
2026-05-08 04:59 30.57232 103.94978 1646 ft 11 kts 291°
2026-05-08 05:00 30.57268 103.94871 1646 ft 17 kts 292°
2026-05-08 05:00 30.57318 103.94725 1646 ft 20 kts 288°
2026-05-08 05:00 30.57284 103.94650 1646 ft 11 kts 200°
2026-05-08 05:00 30.57210 103.94615 1646 ft 13 kts 202°
2026-05-08 05:01 30.57114 103.94570 1646 ft 17 kts 202°
2026-05-08 05:01 30.56997 103.94515 1646 ft 20 kts 202°
2026-05-08 05:01 30.56858 103.94450 1646 ft 23 kts 202°
2026-05-08 05:01 30.56700 103.94376 1646 ft 25 kts 202°
2026-05-08 05:02 30.56537 103.94299 1646 ft 25 kts 202°
2026-05-08 05:02 30.56374 103.94223 1646 ft 25 kts 202°
2026-05-08 05:02 30.56307 103.94150 1646 ft 11 kts 279°
2026-05-08 05:02 30.56338 103.94069 1646 ft 12 kts 292°
2026-05-08 05:03 30.56395 103.94021 1646 ft 11 kts
2026-05-08 05:03 30.56471 103.94055 1646 ft 14 kts 22°
2026-05-08 05:03 30.56737 103.94180 1646 ft 78 kts 22°
2026-05-08 05:03 30.57450 103.94514 1646 ft 140 kts 22°
2026-05-08 05:04 30.58491 103.94999 1836 ft 172 kts 21°
2026-05-08 05:04 30.59597 103.95515 2490 ft 173 kts 21°
2026-05-08 05:04 30.60726 103.96038 3122 ft 181 kts 21°
2026-05-08 05:04 30.61972 103.96616 3487 ft 205 kts 21°
2026-05-08 05:05 30.63378 103.97272 3951 ft 230 kts 22°
2026-05-08 05:05 30.64937 103.98001 4504 ft 251 kts 23°
2026-05-08 05:05 30.66585 103.98769 5379 ft 258 kts 22°
2026-05-08 05:05 30.68237 103.99630 6352 ft 262 kts 33°
2026-05-08 05:06 30.69537 104.01140 7285 ft 268 kts 53°
2026-05-08 05:06 30.70517 104.02995 8199 ft 272 kts 60°
2026-05-08 05:06 30.71387 104.04978 9095 ft 278 kts 62°
2026-05-08 05:06 30.72260 104.07008 9956 ft 284 kts 62°
2026-05-08 05:07 30.73181 104.09063 10767 ft 290 kts 60°
2026-05-08 05:07 30.74157 104.11140 11548 ft 297 kts 59°
2026-05-08 05:07 30.75182 104.13248 12328 ft 302 kts 59°
2026-05-08 05:07 30.75992 104.15531 13030 ft 312 kts 79°
2026-05-08 05:08 30.75939 104.18058 13723 ft 318 kts 105°
2026-05-08 05:08 30.74972 104.20364 14431 ft 321 kts 130°
2026-05-08 05:08 30.73256 104.22003 15124 ft 321 kts 156°
2026-05-08 05:08 30.71117 104.22659 15831 ft 319 kts 181°
2026-05-08 05:09 30.68956 104.22244 16535 ft 316 kts 203°
2026-05-08 05:09 30.66903 104.21335 17274 ft 317 kts 205°
2026-05-08 05:09 30.64835 104.20406 17980 ft 320 kts 205°
2026-05-08 05:09 30.62750 104.19468 18679 ft 322 kts 205°
2026-05-08 05:10 30.60651 104.18529 19359 ft 324 kts 205°
2026-05-08 05:10 30.56403 104.16633 20597 ft 330 kts 205°
2026-05-08 05:10 30.54245 104.15677 21188 ft 333 kts 205°
2026-05-08 05:11 30.52068 104.14713 21766 ft 336 kts 205°
2026-05-08 05:11 30.49876 104.13745 22330 ft 339 kts 205°
2026-05-08 05:11 30.47663 104.12767 22886 ft 342 kts 205°
2026-05-08 05:11 30.45423 104.11761 23223 ft 352 kts 206°
2026-05-08 05:12 30.43138 104.10695 23352 ft 366 kts 206°
2026-05-08 05:12 30.40742 104.09561 23482 ft 380 kts 206°
2026-05-08 05:12 30.38244 104.08380 23609 ft 394 kts 206°
2026-05-08 05:12 30.35665 104.07165 23739 ft 405 kts 206°
2026-05-08 05:13 30.33020 104.05925 23862 ft 416 kts 206°
2026-05-08 05:13 30.30309 104.04659 23989 ft 425 kts 206°
2026-05-08 05:13 30.27462 104.03605 24189 ft 435 kts 197°
2026-05-08 05:13 30.24441 104.03116 24485 ft 444 kts 187°
2026-05-08 05:14 30.21322 104.03162 24801 ft 450 kts 182°
2026-05-08 05:14 30.18190 104.03292 25130 ft 452 kts 183°
2026-05-08 05:14 30.15042 104.03414 25460 ft 454 kts 183°
2026-05-08 05:14 30.11880 104.03531 25784 ft 456 kts 184°
2026-05-08 05:15 30.08704 104.03649 26103 ft 457 kts 184°
2026-05-08 05:15 30.05512 104.03767 26401 ft 460 kts 184°
2026-05-08 05:15 30.02312 104.03889 26697 ft 462 kts 184°
2026-05-08 05:15 29.99093 104.04013 26991 ft 464 kts 184°
2026-05-08 05:16 29.95862 104.04136 27269 ft 466 kts 185°
2026-05-08 05:16 29.92618 104.04260 27563 ft 468 kts 185°
2026-05-08 05:16 29.89366 104.04385 27848 ft 469 kts 185°
2026-05-08 05:16 29.86091 104.04505 28126 ft 470 kts 185°
2026-05-08 05:17 29.82820 104.04626 28382 ft 472 kts 185°
2026-05-08 05:17 29.79530 104.04749 28652 ft 473 kts 186°
2026-05-08 05:17 29.76286 104.04851 28971 ft 472 kts 187°
2026-05-08 05:17 29.73021 104.04843 29336 ft 468 kts 189°
2026-05-08 05:18 29.69775 104.04724 29693 ft 466 kts 191°
2026-05-08 05:18 29.66542 104.04546 30059 ft 463 kts 191°
2026-05-08 05:18 29.63327 104.04351 30276 ft 463 kts 192°
2026-05-08 05:19 29.56926 104.04011 30319 ft 459 kts 191°
2026-05-08 05:19 29.50535 104.03756 30319 ft 459 kts 190°
2026-05-08 05:20 29.44152 104.03530 30320 ft 459 kts 190°
2026-05-08 05:20 29.37766 104.03302 30329 ft 460 kts 189°
2026-05-08 05:21 29.31341 104.03317 30328 ft 462 kts 187°
2026-05-08 05:21 29.24911 104.03497 30321 ft 462 kts 187°
2026-05-08 05:22 29.18495 104.03647 30320 ft 461 kts 187°
2026-05-08 05:22 29.12096 104.03738 30317 ft 460 kts 188°
2026-05-08 05:23 29.05683 104.03807 30313 ft 460 kts 188°
2026-05-08 05:23 28.99282 104.03886 30311 ft 460 kts 188°
2026-05-08 05:24 28.92888 104.03979 30303 ft 459 kts 188°
2026-05-08 05:24 28.86510 104.04072 30302 ft 457 kts 188°
2026-05-08 05:25 28.80117 104.04157 30310 ft 460 kts 187°
2026-05-08 05:25 28.73711 104.04246 30311 ft 460 kts 187°
2026-05-08 05:26 28.67367 104.04347 30307 ft 458 kts 188°
2026-05-08 05:26 28.61044 104.04306 30307 ft 449 kts 194°
2026-05-08 05:27 28.55132 104.02496 30317 ft 433 kts 212°
2026-05-08 05:27 28.50002 103.99076 30319 ft 427 kts 218°
2026-05-08 05:28 28.44955 103.95514 30323 ft 427 kts 218°
2026-05-08 05:28 28.39906 103.91975 30323 ft 426 kts 218°
2026-05-08 05:29 28.34856 103.88426 30330 ft 427 kts 218°
2026-05-08 05:29 28.29848 103.84900 30338 ft 427 kts 218°
2026-05-08 05:30 28.24793 103.81342 30350 ft 430 kts 218°
2026-05-08 05:30 28.19699 103.77773 30359 ft 430 kts 218°
2026-05-08 05:31 28.14606 103.74215 30354 ft 429 kts 218°
2026-05-08 05:31 28.09523 103.70657 30349 ft 429 kts 218°
2026-05-08 05:32 28.04452 103.67100 30345 ft 429 kts 218°
2026-05-08 05:32 27.99379 103.63548 30347 ft 429 kts 218°
2026-05-08 05:33 27.94307 103.60009 30348 ft 428 kts 218°
2026-05-08 05:33 27.89239 103.56478 30343 ft 428 kts 218°
2026-05-08 05:34 27.84164 103.52949 30342 ft 428 kts 218°
2026-05-08 05:34 27.79101 103.49423 30338 ft 428 kts 218°
2026-05-08 05:35 27.74030 103.45900 30338 ft 428 kts 218°
2026-05-08 05:35 27.68956 103.42376 30338 ft 428 kts 218°
2026-05-08 05:36 27.63878 103.38850 30334 ft 428 kts 217°
2026-05-08 05:36 27.58809 103.35348 30335 ft 427 kts 217°
2026-05-08 05:37 27.53731 103.31832 30333 ft 429 kts 217°
2026-05-08 05:37 27.48643 103.28325 30339 ft 429 kts 217°
2026-05-08 05:38 27.43427 103.25055 30342 ft 435 kts 209°
2026-05-08 05:38 27.37778 103.22545 30350 ft 436 kts 208°
2026-05-08 05:39 27.32139 103.20055 30346 ft 434 kts 208°
2026-05-08 05:39 27.26502 103.17569 30357 ft 436 kts 208°
2026-05-08 05:40 27.20853 103.15078 30355 ft 436 kts 208°
2026-05-08 05:40 27.15209 103.12582 30352 ft 436 kts 208°
2026-05-08 05:41 27.09567 103.10086 30359 ft 436 kts 208°
2026-05-08 05:41 27.03920 103.07594 30364 ft 437 kts 208°
2026-05-08 05:42 26.98298 103.05118 30367 ft 437 kts 208°
2026-05-08 05:42 26.92638 103.02633 30364 ft 436 kts 208°
2026-05-08 05:43 26.86989 103.00148 30379 ft 438 kts 208°
2026-05-08 05:43 26.82232 102.98055 30383 ft 438 kts 208°
2026-05-08 05:44 26.75636 102.95161 30378 ft 437 kts 208°
2026-05-08 05:44 26.70659 102.91587 30394 ft 420 kts 230°
2026-05-08 05:45 26.67538 102.86212 30394 ft 411 kts 250°
2026-05-08 05:45 26.66348 102.79989 30386 ft 410 kts 261°
2026-05-08 05:46 26.65505 102.73687 30374 ft 410 kts 261°
2026-05-08 05:46 26.64801 102.68450 30384 ft 410 kts 261°
2026-05-08 05:47 26.63811 102.61077 30392 ft 411 kts 261°
2026-05-08 05:47 26.63101 102.55826 30119 ft 411 kts 261°
2026-05-08 05:47 26.62671 102.52664 29871 ft 412 kts 261°
2026-05-08 05:48 26.62239 102.49502 29617 ft 412 kts 261°
2026-05-08 05:48 26.61805 102.46343 29343 ft 411 kts 261°
2026-05-08 05:48 26.61370 102.43202 28364 ft 406 kts 261°
2026-05-08 05:48 26.60942 102.40118 27293 ft 397 kts 261°
2026-05-08 05:49 26.60418 102.37120 26236 ft 390 kts 255°
2026-05-08 05:49 26.59522 102.34247 25199 ft 394 kts 248°
2026-05-08 05:49 26.58242 102.31529 24144 ft 398 kts 240°
2026-05-08 05:49 26.56717 102.28938 23095 ft 400 kts 239°
2026-05-08 05:50 26.55179 102.26331 22020 ft 403 kts 239°
2026-05-08 05:50 26.53634 102.23708 20941 ft 406 kts 239°
2026-05-08 05:50 26.52083 102.21069 19862 ft 408 kts 239°
2026-05-08 05:50 26.50523 102.18418 18777 ft 409 kts 239°
2026-05-08 05:51 26.48961 102.15767 17682 ft 410 kts 238°
2026-05-08 05:51 26.47395 102.13118 16793 ft 407 kts 238°
2026-05-08 05:51 26.45844 102.10501 16003 ft 403 kts 238°
2026-05-08 05:51 26.44302 102.07903 15238 ft 400 kts 238°
2026-05-08 05:52 26.42790 102.05348 14937 ft 386 kts 238°
2026-05-08 05:52 26.41349 102.02909 14837 ft 367 kts 238°
2026-05-08 05:52 26.39976 102.00589 14755 ft 350 kts 237°
2026-05-08 05:52 26.38653 101.98359 14391 ft 339 kts 237°
2026-05-08 05:53 26.37394 101.96241 14218 ft 316 kts 237°
2026-05-08 05:53 26.36231 101.94282 14080 ft 297 kts 238°
2026-05-08 05:53 26.35110 101.92393 13957 ft 279 kts 238°
2026-05-08 05:53 26.34090 101.90669 13836 ft 262 kts 238°
2026-05-08 05:54 26.33119 101.89034 13720 ft 246 kts 237°
2026-05-08 05:54 26.32188 101.87467 13630 ft 240 kts 238°
2026-05-08 05:54 26.31273 101.85925 13521 ft 238 kts 237°
2026-05-08 05:54 26.30477 101.84314 13408 ft 237 kts 252°
2026-05-08 05:55 26.30242 101.82508 13260 ft 237 kts 271°
2026-05-08 05:55 26.30627 101.80703 12833 ft 243 kts 290°
2026-05-08 05:55 26.31259 101.78947 12443 ft 246 kts 289°
2026-05-08 05:55 26.31888 101.77177 12034 ft 244 kts 289°
2026-05-08 05:56 26.32505 101.75434 11665 ft 239 kts 290°
2026-05-08 05:56 26.33107 101.73731 11297 ft 234 kts 290°
2026-05-08 05:56 26.33997 101.72246 10905 ft 231 kts 323°
2026-05-08 05:56 26.35493 101.71730 10560 ft 229 kts
2026-05-08 05:57 26.37038 101.72123 10245 ft 227 kts 19°
2026-05-08 05:57 26.38481 101.72771 9864 ft 221 kts 24°
2026-05-08 05:57 26.39861 101.73460 9505 ft 213 kts 24°
2026-05-08 05:57 26.41168 101.74106 9198 ft 199 kts 24°
2026-05-08 05:58 26.42405 101.74697 8914 ft 188 kts 23°
2026-05-08 05:58 26.43577 101.75242 8651 ft 177 kts 23°
2026-05-08 05:58 26.44704 101.75752 8392 ft 173 kts 22°
2026-05-08 05:58 26.45785 101.76237 8145 ft 160 kts 22°
2026-05-08 05:59 26.46790 101.76684 7901 ft 155 kts 22°
2026-05-08 05:59 26.47786 101.77140 7628 ft 154 kts 23°
2026-05-08 05:59 26.48780 101.77580 7391 ft 153 kts 21°
2026-05-08 05:59 26.49775 101.78005 7190 ft 153 kts 21°
2026-05-08 06:00 26.50765 101.78437 6964 ft 153 kts 22°
2026-05-08 06:00 26.51750 101.78874 6733 ft 152 kts 21°
2026-05-08 06:00 26.52716 101.79292 6554 ft 151 kts 22°
2026-05-08 06:00 26.53656 101.79694 6483 ft 132 kts 25°
2026-05-08 06:01 26.54367 101.80009 6496 ft 85 kts 21°
2026-05-08 06:01 26.54761 101.80180 6503 ft 42 kts 21°
2026-05-08 06:01 26.55013 101.80289 6510 ft 34 kts 21°
2026-05-08 06:01 26.55168 101.80324 6511 ft 9 kts 41°
2026-05-08 06:02 26.55143 101.80345 6511 ft 5 kts 196°
2026-05-08 06:02 26.55106 101.80330 6511 ft 7 kts 200°
2026-05-08 06:02 26.55044 101.80303 6511 ft 12 kts 201°
2026-05-08 06:02 26.54944 101.80260 6508 ft 19 kts 201°
2026-05-08 06:03 26.54801 101.80198 6504 ft 25 kts 201°
2026-05-08 06:03 26.54637 101.80127 6501 ft 26 kts 201°
2026-05-08 06:03 26.54462 101.80049 6497 ft 27 kts 201°
2026-05-08 06:03 26.54288 101.79975 6494 ft 27 kts 201°
2026-05-08 06:04 26.54109 101.79897 6491 ft 27 kts 201°
2026-05-08 06:04 26.53938 101.79822 6485 ft 16 kts 205°
2026-05-08 06:04 26.53941 101.79722 6484 ft 15 kts 291°
2026-05-08 06:04 26.53942 101.79636 6483 ft 11 kts 212°
2026-05-08 06:05 26.53873 101.79606 6483 ft 11 kts 201°
2026-05-08 06:05 26.53841 101.79576 6481 ft 4 kts 270°
2026-05-08 06:05 26.53853 101.79543 6475 ft 5 kts 292°
2026-05-08 06:05 26.53857 101.79531 6471 ft 0 kts 291°